STARLINK-34263, 64164

Orbit data source: Space-Track

STARLINK-34263, 64164 is a payload satellite owned by SpaceX/Seattle (US) in SSO that was launched on Tue, 27 May 2025 UTC via an FALCON 9 launch vehicle from the Air Force Western Test Range (AFWTR). Payload-class satellites include a variety of spacecraft equipped with specific instruments for various scientific and technological missions. These include communications satellites like Starlink; space stations such as the ISS; scientific satellites like the Hubble; Earth observation satellites from companies like Planet Labs, Umbra, and HawkEye 360; GPS; miniature CubeSats for education and research; and military/defense satellites.

Loading next visibility...
Identifier
64164, 2025-112U
Orbit
SSO
Country
Flag of USUS
Related business
Manufacturer
SpaceX/Seattle
Mission
Operational Commercial Communications
Bus & Motor
STARLINK V2MO, Unknown motor
Mass
575 kg wet, ~530 kg dry
Launch date (UTC)
2025-05-27 (1 year ago)
Launch vehicle
FALCON 9
Launch site
Air Force Western Test Range (AFWTR)
Object type
Payload
Rocket body
Debris
Shape & HBR
Box + 1 Pan, 17.7 m
Radar Cross Section
41.120 m², Large (>1 m²)

Expand to show TLE details & history
Last TLE update: 1 day ago

TLE from 1 day ago
0 STARLINK-34263
1 64164U 25112U   26235.87255983  .00011464  00000-0  35687-3 0  9995
2 64164  97.2840 283.3359 0001532  89.7183 270.4235 15.33446779 68515
Epoch: 2026-08-23T20:56Z
TLE epoch observation values (Epoch: 2026-08-23T20:56:29.169Z)
Latitude
-0.00004°
Longitude
-2.94801°
Altitude
468.642 km
Speed
7.632 km/s
True Right ascension
18h 53m 20s
True Declination
0° 00' 00"
Sunlit
Object was in full shadow at epoch
Visualization orbit readout
Latitude
Unknown
Longitude
Unknown
Altitude
Unknown
Speed
Unknown
Apparent Right ascension
Unknown
Apparent Declination
Unknown
Sunlit
N/A
Visualization observer readout
Local Sidereal Time
18:45:27
Azimuth
Unknown
Elevation
Unknown
Doppler factor
Unknown
Orbital elements
Apogee altitude
463.529 km
Perigee altitude
461.433 km
Semi-major axis
6,840.618 km
Eccentricity
0.00015
Inclination
97.284°
RAAN
283.3359°
Arg. of periapsis
89.7183°
True anomaly
270.40595°
Mean anomaly
270.4235°
Eccentric anomaly
270.41472°
Mean motion
3.83619 °/min
Orbital period
93.84 mins
BSTAR
0.00035687
Loading maneuver chart data...
Computing Atmospheric mass density...
Loading historical data...
Loading historical data...
Loading historical data...
Loading historical data...
Loading historical data...
Loading historical data...
Loading historical data...

Documentation

Showing up to 5 results
|